201P/LONEOS (2008)

Japanese version
Home page
Updated on March 17, 2010

---------------------------------------------------------------------

* Profile

Designation 201P/2008 Q4
Recovery Date August 31, 2008
Magnitude 16.5 mag
Recoverer Michael Jaeger (Stixendorf, Austria)

* Pictures

* Orbital Elements

Epoch 2008 Aug. 2.0 TT = JDT 2454680.5
T 2008 Aug. 4.75856 TT                                  MPC
q   1.3450207            (2000.0)            P               Q
n   0.15293123     Peri.   24.96262     +0.49783288     -0.86438220
a   3.4631550      Node    35.30179     +0.77374084     +0.40581090
e   0.6116198      Incl.    7.03253     +0.39177485     +0.29691906
P   6.44
From 150 observations 2001-2008, mean residual 0".79.

* Finding Charts

* Magnitudes Graph

        m1 = 13.0 + 5 log d + 15.0 log r

---------------------------------------------------------------------

The orbital elements are published on M.P.E.C. 2008-R76.
The charts are made with StellaNavigator Ver.2.0 for Windows (AstroArts / ASCII).
The magnitudes graphs are made with Comet for Windows.

---------------------------------------------------------------------

Copyright(C) Seiichi Yoshida (comet@aerith.net). All rights reserved.